Location: Chuathbaluk
(61.5726°N, 159.2454°W)
Time: 17:40:42
(UTC+00:00)

ZACube-1 - Pass Details

Date: 21 January 2021
Orbit: 583 x 666 km, 97.6° (Epoch: 04 March)

Event Time Altitude Azimuth Distance (km) Brightness Sun altitude
Rises 15:08:41 0° 19° (NNE) 3,025 ? -29.1°
Reaches altitude 10° 15:11:09 10° 29° (NNE) 2,108 ? -28.8°
Maximum altitude 15:15:17 32° 93° (E) 1,156 ? -28.3°
Drops below altitude 10° 15:19:22 10° 156° (SSE) 2,080 ? -27.8°
Sets 15:21:47 0° 167° (SSE) 2,978 ? -27.6°
